{"data":{"norad_id":68702,"intl_designator":"2026-081D","name":"STARLINK-36275","alt_names":[],"object_type":"PAYLOAD","status":"ACTIVE","operator":null,"country":"US","launch_date":"2026-04-14","launch_site_code":"AFETR","launch_vehicle":null,"mission":null,"orbit_class":"UNKNOWN","rcs_meters":null,"size_class":null,"mass_kg":null,"dimensions":null,"purposes":["comms"],"wikipedia_slug":null,"has_3d_model":false,"image_url":null,"decayed_at":null,"tle_current":{"epoch":"2026-05-25T03:10:11.426016Z","epoch_age_seconds":59701,"freshness":"FRESH","line1":"1 68702U 26081D   26145.13207669  .00051438  00000+0  92634-3 0  9999","line2":"2 68702  53.1598  39.9592 0000793 116.3408 243.7682 15.49323883  6436","mean_motion":15.49323883,"eccentricity":7.93e-5,"inclination_deg":53.1598,"raan_deg":39.9592,"arg_perigee_deg":116.3408,"mean_anomaly_deg":243.7682,"bstar":0.00092634,"rev_number":643,"period_min":92.943768297929,"perigee_km":418.16376501255,"apogee_km":419.2417437976,"semimajor_km":6796.8397544051,"source":"CELESTRAK","updated_at":"2026-05-25T13:38:21.997952Z"}}}